Wind_Speed
48 46 46 44 42 41 39 37 37 38 37 35 36 36 34 33 34 31 30 32 31 33 32 27 26 27 27 26 26 26 29 29 32 34 32 33 33 32 33 28 29 32 35 38 39 40 41 33 31 42 39 36 30 28
54 53 52 49 48 48 45 42 40 38 38 37 37 39 38 36 36 36 32 32 32 34 36 32 30 29 29 30 30 28 31 31 33 33 34 35 35 36 36 36 35 39 39 39 41 42 41 41 37 43 47 40 37 32
55 57 56 53 51 51 52 49 46 44 41 38 37 37 39 40 39 39 38 36 34 35 39 35 34 33 32 34 33 33 33 33 35 36 37 38 38 40 41 42 41 43 44 45 43 44 48 47 46 44 51 47 43 43
51 52 53 54 54 54 56 56 53 50 46 44 41 37 37 37 38 39 41 40 39 37 40 40 38 38 35 36 37 35 35 37 38 41 41 39 40 43 44 46 47 46 48 49 51 53 52 53 55 51 51 54 53 49
61 60 62 65 62 60 61 60 58 56 51 48 46 42 40 41 40 37 38 41 40 38 38 42 42 40 40 39 38 38 37 37 39 41 41 43 46 48 48 49 51 52 55 59 59 60 61 58 61 60 55 57 58 56
61 62 63 65 67 66 62 64 66 58 57 55 53 49 48 47 43 42 39 41 40 39 39 40 43 44 42 41 41 41 41 43 42 43 44 45 48 50 51 52 51 56 59 62 65 69 70 67 67 69 66 61 62 62
61 60 59 58 60 60 60 58 59 57 57 56 56 54 51 51 50 48 45 42 42 43 43 42 44 44 43 43 43 43 45 44 45 46 46 48 50 52 51 49 47 51 52 54 57 64 70 71 78 71 76 66 66 61
58 56 55 51 51 50 50 49 48 48 50 51 52 54 55 53 51 51 49 49 46 46 46 46 46 46 45 44 43 45 45 46 46 46 46 47 46 47 49 42 46 44 39 35 33 40 49 60 63 74 78 74 70 64
47 47 37 35 42 40 38 42 41 39 39 42 44 45 47 48 49 50 49 47 46 46 46 46 48 47 46 44 45 45 45 45 45 43 44 44 38 37 39 37 38 39 40 41 42 43 44 47 47 57 80 76 72 69
46 37 40 35 38 32 36 39 40 40 38 37 37 36 37 39 44 43 42 43 43 42 43 42 44 45 44 44 44 45 43 41 40 38 38 37 31 37 36 34 37 36 41 45 44 48 48 49 50 49 71 80 69 70
46 43 39 37 36 35 36 32 33 33 37 39 38 35 34 35 37 38 38 36 39 39 39 39 40 40 40 41 42 43 40 38 34 31 33 31 31 38 36 36 38 38 45 47 41 43 43 45 44 45 58 75 75 70
47 45 42 41 38 36 35 34 33 33 35 35 38 38 35 34 34 35 34 35 35 34 33 34 35 36 36 36 38 39 37 35 34 29 28 27 37 36 37 36 37 39 45 43 38 44 40 44 45 46 56 80 70 71
43 42 41 43 41 35 34 35 31 29 30 30 31 31 30 31 32 31 32 31 30 28 28 30 34 33 31 33 34 34 32 29 29 27 27 33 35 35 39 40 37 40 42 44 44 46 40 40 45 46 63 78 81 73
37 38 38 38 35 34 39 34 31 31 34 34 31 30 32 31 31 33 32 31 28 24 24 25 28 30 32 31 30 30 30 27 23 24 25 28 28 32 35 33 35 37 36 38 45 42 37 39 42 50 71 80 76 73
33 33 37 36 41 36 33 32 35 34 37 33 28 30 31 33 31 29 22 20 22 21 23 23 24 28 28 30 27 28 29 24 20 24 23 24 26 30 32 34 32 37 37 39 46 37 31 30 38 47 71 87 70 65
33 36 36 30 40 43 36 36 36 35 37 34 30 32 33 32 28 21 16 18 21 22 23 23 21 24 25 29 26 27 25 19 23 22 26 27 30 35 40 30 30 29 36 37 33 31 28 25 34 47 75 78 69 68
32 32 35 31 28 31 34 37 36 34 34 30 34 36 35 26 19 15 14 19 21 21 20 20 19 23 26 27 27 22 21 21 21 24 25 29 32 36 32 29 26 29 33 36 30 28 21 21 33 64 81 62 60 66
29 32 28 26 26 27 31 35 35 33 30 34 33 30 18 11 10 16 19 20 19 18 18 19 20 20 24 25 25 25 24 23 25 25 26 30 33 34 31 28 28 34 37 36 28 21 12 19 48 69 68 50 67 65
26 27 30 27 25 28 31 33 31 32 34 31 25 13 6 9 15 18 18 17 16 17 18 19 20 20 22 24 23 22 25 27 26 24 27 30 33 34 31 30 30 32 33 28 23 17 11 31 61 69 50 51 53 52
24 20 21 23 24 25 27 29 31 30 25 14 10 8 10 14 16 14 13 13 13 14 15 16 19 21 22 23 25 24 24 27 27 25 25 27 31 34 29 34 33 33 26 22 16 14 22 39 59 71 52 41 41 53
18 21 23 22 23 26 28 29 26 18 10 7 8 12 13 12 11 11 12 10 10 11 12 14 18 20 20 19 20 22 22 27 29 27 26 26 29 26 29 27 19 19 16 12 19 25 38 47 59 64 52 44 34 36
19 21 22 23 25 26 21 15 10 6 9 11 11 11 10 9 9 7 6 8 11 13 16 19 19 16 18 19 19 21 20 23 24 24 29 31 23 26 22 21 10 16 9 21 31 42 47 58 65 64 60 48 36 33
20 21 23 23 21 18 9 7 8 10 10 10 10 10 8 9 7 6 5 7 9 11 12 12 14 15 15 15 15 17 18 20 21 24 25 24 25 18 23 18 6 7 21 30 46 42 42 48 43 41 37 30 31 34
19 19 17 14 8 6 8 9 10 10 10 10 9 9 9 7 10 7 5 5 7 9 13 13 14 16 17 16 15 15 15 16 18 21 23 22 25 24 22 5 9 14 27 46 51 41 48 44 36 43 43 35 23 18
15 10 8 7 8 9 9 9 10 11 10 10 9 10 9 6 8 5 2 4 9 11 11 13 17 23 14 16 14 15 14 15 17 19 18 19 15 18 24 6 9 29 40 43 40 40 43 34 27 27 32 40 33 24
7 8 8 9 8 8 9 10 10 11 10 10 10 11 8 7 7 3 4 7 8 10 12 16 18 17 18 16 14 14 15 15 14 14 12 18 12 22 14 5 15 37 48 57 43 46 34 27 27 32 36 28 23 18
7 7 7 7 7 8 9 9 9 10 10 10 10 12 10 11 7 5 4 6 8 9 12 15 17 16 16 16 14 18 19 16 12 10 13 11 12 18 10 8 27 38 47 45 38 43 43 37 28 24 26 27 24 23
6 6 5 5 6 6 7 8 9 10 11 11 12 12 7 9 9 8 5 8 8 10 12 15 18 18 16 16 17 17 17 19 13 11 11 7 13 13 4 6 25 32 44 45 40 40 43 31 23 24 26 22 20 22
3 3 3 5 5 6 8 8 9 10 9 10 10 14 10 10 9 8 8 10 10 10 13 15 18 19 20 17 16 15 16 17 20 20 13 9 10 16 11 6 28 33 41 39 34 33 32 34 28 22 17 15 24 23
2 3 3 3 4 5 5 6 7 6 8 8 7 9 13 11 10 9 8 10 12 13 14 16 18 18 19 18 15 15 15 17 19 18 8 9 6 19 16 10 27 36 39 41 41 40 38 33 30 22 14 30 39 35
5 8 8 8 8 6 5 5 6 5 4 5 7 9 12 13 12 13 12 14 13 16 18 18 19 18 16 14 12 12 14 15 16 18 13 7 10 17 17 16 29 39 41 42 43 36 29 26 25 23 19 34 37 45
12 13 13 14 11 4 3 2 0 4 5 5 8 8 9 10 10 10 14 15 17 16 16 16 15 15 11 9 10 11 12 12 12 16 15 9 3 10 12 21 23 41 40 42 35 28 20 16 14 13 30 30 36 37
15 14 12 10 8 6 5 3 2 1 1 3 5 6 7 9 11 12 14 14 13 11 10 10 10 10 9 8 7 8 9 9 8 10 14 13 4 7 14 17 22 34 48 48 38 31 25 20 23 17 21 19 20 25
Wind_Direction
274 274 274 276 278 280 281 281 283 283 281 280 279 279 277 273 272 271 275 277 276 273 271 269 274 278 277 276 278 279 276 275 281 284 282 280 279 277 274 268 258 252 251 252 255 259 260 255 247 223 230 243 232 234
270 273 275 276 273 275 276 278 278 279 282 282 280 278 277 275 270 270 272 274 273 270 272 273 277 275 276 279 279 277 278 278 277 277 279 277 278 277 277 273 266 261 257 254 254 258 261 258 243 235 232 234 246 240
271 270 273 273 273 272 272 274 276 276 276 276 278 279 279 278 276 274 273 276 274 270 269 271 272 276 278 280 281 281 282 283 281 279 278 278 280 280 276 273 267 263 261 256 251 249 253 256 254 242 239 242 239 248
272 268 271 271 271 269 270 270 271 273 272 273 274 274 277 278 276 276 276 275 275 273 271 273 273 276 278 280 283 282 284 286 284 283 283 281 278 276 276 275 271 267 262 260 255 248 245 246 251 248 239 242 246 245
268 268 269 270 271 270 271 271 271 270 271 270 271 271 274 275 274 273 275 274 274 273 275 277 276 276 277 279 279 278 278 276 275 276 275 274 276 275 274 271 268 266 263 259 256 251 246 239 243 245 243 242 243 244
268 267 267 267 271 273 273 272 274 273 270 269 271 271 273 275 274 272 270 273 272 272 272 274 275 279 280 281 282 282 282 281 280 279 278 277 276 274 274 272 270 268 264 260 258 255 250 245 235 239 239 234 238 238
265 266 266 268 271 272 274 274 275 275 272 269 269 269 269 270 270 269 270 271 273 275 275 276 277 278 280 282 282 282 282 283 283 282 283 282 280 279 281 278 275 271 267 261 258 255 252 248 242 231 235 231 230 236
260 262 264 265 269 269 269 272 275 274 273 270 268 267 268 268 267 268 268 269 271 272 273 275 278 280 281 281 282 282 284 284 285 286 285 283 283 284 285 283 278 274 263 263 270 269 268 255 249 236 231 229 228 228
260 266 263 256 266 265 273 268 273 273 273 271 269 267 267 266 265 266 269 269 269 270 270 272 275 277 279 280 280 282 283 284 286 286 284 285 285 283 280 270 258 263 268 266 269 276 271 268 269 239 226 223 225 224
258 254 254 258 265 273 270 281 279 271 271 269 267 266 265 265 265 265 265 267 267 268 269 270 273 275 278 280 281 283 285 288 290 288 285 285 286 278 275 269 262 270 277 270 272 281 275 260 260 252 223 218 217 220
250 250 254 249 262 261 271 274 287 286 276 267 266 263 264 265 266 267 266 266 267 266 267 268 271 274 278 280 283 285 288 291 288 281 279 278 273 273 274 271 269 275 281 284 289 285 282 252 259 254 227 208 210 215
246 247 247 250 258 261 272 278 287 295 292 282 274 267 268 271 269 269 269 267 267 267 267 268 270 273 279 282 284 287 290 292 288 286 279 271 265 268 265 266 270 278 278 285 291 296 274 261 254 244 221 199 205 206
242 243 242 241 251 256 260 269 283 293 298 290 278 271 269 271 273 271 266 263 260 262 264 269 274 277 281 282 283 288 288 286 285 284 281 274 274 272 268 265 270 279 279 285 296 301 280 261 248 236 209 193 192 198
237 236 237 240 243 251 254 264 275 285 300 296 279 277 275 278 276 271 261 257 256 261 269 277 280 282 285 286 290 293 289 282 280 282 280 283 282 278 273 272 274 277 288 291 297 297 280 263 249 227 201 194 189 193
230 227 232 223 243 249 259 263 275 277 293 292 283 280 281 279 273 262 253 255 259 270 277 277 276 279 283 288 293 291 281 275 276 281 287 287 292 284 283 292 283 285 295 298 299 289 282 269 246 221 199 194 194 190
223 225 226 239 240 249 257 263 277 281 285 281 279 283 277 271 257 245 249 266 276 278 274 272 276 279 285 290 297 284 273 268 278 292 296 296 296 290 294 295 298 302 302 310 301 295 290 265 234 201 184 189 186 195
222 220 223 232 243 259 264 280 274 279 282 284 282 286 275 252 241 248 264 270 271 267 272 279 282 283 290 295 295 281 257 259 286 297 301 298 299 296 292 301 306 306 305 303 297 293 284 250 213 187 185 181 192 198
218 214 223 232 248 258 263 271 277 279 277 284 280 264 227 223 257 269 272 271 272 277 279 283 282 293 293 294 287 263 253 272 288 295 301 303 304 297 304 305 308 307 303 299 287 292 250 216 194 180 177 171 188 193
218 222 227 244 251 259 265 269 273 279 279 276 248 226 225 260 263 266 268 274 277 279 283 285 289 287 291 294 287 270 262 270 279 285 292 305 302 300 296 306 307 315 301 300 282 269 226 189 180 188 180 164 181 191
201 204 222 236 255 267 272 273 277 272 254 219 211 227 249 256 258 263 273 276 272 276 287 297 297 297 296 291 289 284 268 271 282 286 298 306 310 303 298 303 313 308 284 294 258 201 182 171 178 189 185 166 178 194
214 227 239 248 262 270 273 275 257 221 191 212 244 245 243 247 260 271 265 268 276 289 299 301 305 301 300 300 300 289 282 274 282 291 299 308 314 285 299 322 324 297 293 270 175 159 169 167 178 188 184 190 186 183
229 234 248 263 270 276 248 212 187 193 229 233 233 238 244 249 248 237 243 272 277 284 301 310 309 304 298 297 303 301 284 278 288 298 304 315 309 301 332 354 319 290 237 168 153 162 166 173 173 182 193 202 204 203
243 255 267 270 245 212 189 189 225 233 227 222 228 232 236 232 211 198 266 284 306 312 316 322 327 330 327 321 315 307 299 292 297 301 311 316 299 308 349 8 303 221 166 158 156 154 158 168 170 181 193 200 207 216
267 254 221 180 170 195 221 226 225 221 220 219 222 228 221 213 195 229 280 300 320 336 337 336 341 340 335 330 324 321 320 317 313 312 322 306 304 329 344 13 260 188 156 161 147 147 144 170 169 183 190 182 172 188
181 162 160 194 213 218 223 224 220 217 217 218 218 215 208 209 208 217 266 335 352 344 338 338 343 341 325 328 336 338 330 319 317 318 313 303 321 334 352 326 240 170 168 171 152 143 157 155 170 186 200 207 215 210
181 197 204 214 215 218 219 217 217 213 210 208 206 196 199 204 196 205 318 339 350 354 352 357 342 345 354 355 353 342 334 338 338 334 306 278 330 352 12 254 208 162 176 174 158 160 159 158 176 167 194 193 199 208
192 201 212 219 223 225 222 217 211 207 201 204 201 202 215 214 214 241 292 326 348 354 354 354 353 353 359 355 356 352 353 341 328 327 281 304 1 13 6 259 182 164 174 170 158 158 159 166 155 166 177 196 205 206
199 212 221 233 238 236 221 212 206 197 197 201 200 201 210 230 227 233 260 300 326 347 355 355 356 359 355 0 359 353 355 356 351 319 300 345 7 18 9 250 178 165 178 168 173 176 173 181 184 166 170 188 203 194
217 223 233 240 225 208 201 201 196 189 195 201 213 228 243 246 237 247 268 287 304 328 338 337 341 347 350 352 353 357 0 348 351 354 327 308 0 48 131 178 175 173 174 172 168 168 177 190 195 177 172 178 179 174
190 199 210 210 193 184 175 174 178 192 197 208 232 237 243 252 255 251 262 274 291 309 318 325 332 340 338 342 342 348 350 347 353 5 5 334 23 77 126 178 187 180 182 175 178 181 187 195 203 206 214 195 183 184
133 125 126 129 109 101 117 152 172 201 220 227 252 255 259 258 250 260 272 275 283 297 307 314 318 325 327 329 327 328 338 351 6 8 8 17 60 71 121 167 187 183 187 190 192 190 187 198 209 205 213 208 206 212
128 120 117 105 72 33 85 93 146 237 237 244 255 263 268 278 280 274 271 276 283 290 298 308 310 314 313 319 318 312 330 351 10 9 12 11 187 45 91 151 191 186 182 182 179 179 183 198 237 187 168 170 195 189
114 106 101 103 105 84 76 72 49 18 336 296 295 290 291 289 287 282 285 287 285 291 300 298 299 310 310 310 298 286 312 343 13 20 6 3 346 81 81 118 171 195 184 177 181 182 193 197 217 198 202 211 193 189
Height
5851 5851 5851 5851 5850 5850 5849 5849 5849 5849 5849 5849 5847 5844 5845 5846 5845 5848 5848 5848 5848 5846 5845 5848 5848 5847 5845 5845 5845 5845 5844 5844 5841 5839 5841 5841 5841 5843 5844 5849 5849 5849 5849 5848 5849 5850 5851 5855 5860 5861 5859 5858 5865 5867
5837 5837 5837 5837 5838 5837 5837 5837 5837 5837 5837 5838 5839 5836 5835 5836 5836 5836 5838 5838 5838 5837 5835 5837 5837 5835 5835 5834 5834 5835 5834 5833 5832 5832 5831 5830 5830 5831 5833 5835 5837 5836 5839 5840 5841 5839 5840 5843 5847 5847 5848 5850 5853 5857
5821 5821 5822 5822 5822 5823 5823 5824 5824 5825 5825 5825 5827 5827 5826 5826 5826 5826 5827 5827 5827 5827 5824 5826 5825 5825 5824 5823 5823 5822 5821 5821 5820 5820 5819 5818 5819 5818 5817 5817 5821 5822 5822 5825 5830 5831 5828 5830 5831 5837 5836 5839 5840 5846
5805 5805 5805 5805 5806 5807 5807 5807 5809 5810 5811 5813 5814 5815 5815 5813 5813 5814 5814 5815 5815 5816 5814 5814 5814 5812 5812 5811 5810 5811 5809 5807 5807 5805 5805 5805 5804 5803 5802 5802 5802 5806 5807 5807 5809 5812 5815 5816 5815 5820 5826 5828 5829 5833
5790 5788 5788 5789 5790 5790 5791 5790 5791 5794 5796 5798 5800 5802 5802 5801 5800 5802 5801 5800 5802 5805 5804 5801 5801 5802 5799 5799 5798 5797 5798 5797 5795 5793 5792 5790 5787 5785 5784 5785 5786 5786 5786 5783 5785 5789 5793 5802 5799 5802 5810 5813 5815 5821
5771 5771 5770 5771 5772 5773 5773 5774 5775 5778 5779 5782 5784 5787 5787 5787 5787 5787 5788 5787 5788 5789 5791 5791 5788 5786 5787 5786 5784 5783 5781 5779 5779 5776 5774 5773 5770 5770 5769 5768 5767 5761 5762 5763 5765 5766 5769 5778 5783 5781 5786 5797 5800 5809
5752 5753 5754 5754 5756 5756 5757 5757 5758 5760 5761 5764 5767 5769 5770 5771 5771 5772 5773 5775 5774 5773 5774 5775 5773 5774 5773 5772 5770 5768 5765 5764 5762 5759 5757 5753 5749 5747 5746 5746 5745 5740 5739 5739 5738 5737 5743 5751 5754 5767 5766 5779 5782 5793
5734 5735 5737 5738 5739 5741 5743 5744 5743 5743 5744 5746 5748 5751 5753 5754 5754 5756 5756 5758 5759 5760 5759 5759 5758 5759 5759 5757 5756 5751 5750 5746 5743 5741 5738 5733 5730 5728 5727 5725 5721 5718 5717 5716 5715 5716 5720 5722 5723 5736 5741 5759 5767 5780
5717 5720 5722 5726 5726 5729 5730 5730 5731 5731 5730 5732 5732 5734 5735 5737 5737 5738 5740 5742 5742 5744 5743 5744 5743 5744 5743 5742 5739 5736 5734 5731 5728 5724 5719 5717 5715 5713 5710 5708 5708 5704 5701 5702 5702 5702 5702 5700 5702 5707 5715 5733 5749 5762
5704 5707 5711 5714 5715 5717 5719 5719 5719 5720 5719 5718 5719 5720 5720 5721 5721 5723 5724 5726 5726 5727 5727 5728 5727 5727 5727 5725 5722 5721 5716 5714 5710 5707 5702 5701 5700 5695 5694 5695 5692 5689 5688 5688 5686 5685 5682 5682 5681 5684 5687 5709 5730 5744
5691 5695 5698 5702 5704 5706 5708 5709 5708 5708 5707 5707 5706 5707 5707 5708 5708 5708 5710 5711 5711 5712 5712 5713 5713 5713 5711 5709 5707 5704 5700 5698 5696 5694 5691 5690 5687 5681 5680 5679 5677 5676 5671 5669 5667 5661 5659 5660 5661 5663 5669 5691 5711 5728
5676 5682 5686 5690 5693 5696 5698 5699 5700 5699 5696 5695 5695 5695 5696 5696 5696 5697 5698 5698 5697 5698 5699 5699 5699 5698 5698 5695 5692 5689 5687 5684 5681 5681 5679 5678 5669 5669 5668 5667 5665 5661 5656 5652 5647 5643 5640 5639 5641 5642 5651 5672 5693 5712
5662 5668 5673 5677 5682 5687 5689 5690 5691 5690 5688 5685 5684 5684 5685 5685 5685 5687 5685 5685 5686 5685 5686 5687 5685 5687 5686 5682 5679 5677 5675 5674 5670 5668 5666 5662 5659 5658 5656 5655 5653 5647 5641 5635 5629 5624 5621 5620 5621 5623 5634 5653 5676 5697
5650 5656 5661 5667 5673 5677 5679 5681 5681 5681 5680 5677 5675 5675 5675 5676 5675 5676 5675 5675 5677 5677 5678 5678 5676 5674 5670 5669 5667 5665 5663 5661 5660 5658 5656 5652 5650 5647 5645 5643 5639 5634 5627 5620 5614 5608 5604 5603 5603 5606 5621 5640 5666 5689
5641 5647 5652 5657 5664 5667 5669 5671 5673 5672 5671 5669 5668 5667 5667 5666 5665 5665 5667 5667 5667 5669 5670 5670 5668 5665 5661 5658 5658 5655 5651 5651 5651 5648 5645 5643 5641 5637 5634 5631 5626 5621 5614 5608 5601 5595 5593 5589 5589 5597 5614 5636 5654 5673
5631 5636 5643 5649 5655 5657 5661 5663 5663 5662 5661 5660 5659 5658 5657 5656 5656 5656 5657 5659 5660 5660 5660 5660 5658 5655 5653 5649 5649 5645 5642 5643 5641 5639 5637 5634 5632 5629 5624 5620 5614 5609 5602 5595 5589 5586 5584 5580 5586 5598 5614 5633 5651 5666
5624 5632 5637 5641 5646 5649 5652 5653 5653 5653 5652 5651 5650 5647 5647 5647 5647 5649 5651 5654 5655 5653 5651 5649 5649 5646 5644 5641 5639 5636 5636 5635 5634 5632 5629 5625 5622 5618 5614 5609 5604 5598 5591 5585 5579 5577 5575 5576 5584 5597 5618 5638 5652 5664
5618 5624 5629 5635 5639 5641 5643 5644 5644 5643 5642 5640 5638 5638 5639 5640 5642 5644 5646 5646 5645 5644 5644 5642 5641 5639 5635 5634 5631 5629 5628 5627 5625 5623 5621 5618 5614 5609 5605 5599 5595 5588 5581 5576 5573 5571 5569 5574 5586 5603 5619 5630 5645 5658
5613 5618 5624 5628 5631 5633 5634 5635 5635 5633 5632 5631 5631 5631 5633 5636 5638 5639 5639 5639 5639 5639 5638 5636 5633 5633 5630 5627 5625 5623 5622 5620 5619 5618 5615 5611 5606 5602 5597 5592 5586 5579 5571 5567 5564 5565 5568 5575 5588 5603 5616 5631 5647 5658
5609 5614 5618 5622 5624 5625 5625 5626 5625 5623 5624 5625 5625 5627 5630 5632 5633 5634 5634 5634 5635 5633 5632 5631 5628 5625 5624 5622 5618 5617 5614 5612 5611 5611 5610 5605 5600 5595 5589 5582 5577 5570 5563 5563 5561 5563 5567 5578 5594 5607 5619 5633 5647 5657
5605 5610 5613 5616 5617 5617 5617 5616 5616 5618 5619 5620 5623 5625 5626 5628 5629 5629 5630 5630 5629 5628 5627 5626 5624 5622 5618 5615 5611 5608 5606 5605 5605 5603 5601 5598 5594 5586 5581 5576 5568 5562 5559 5559 5558 5561 5568 5580 5595 5611 5623 5632 5644 5654
5603 5605 5607 5608 5609 5609 5610 5611 5613 5615 5617 5619 5620 5621 5623 5624 5625 5626 5626 5626 5625 5624 5623 5621 5618 5614 5611 5608 5605 5602 5600 5600 5599 5597 5593 5589 5586 5580 5575 5568 5563 5561 5556 5560 5560 5566 5574 5592 5608 5619 5628 5637 5646 5656
5599 5600 5601 5602 5603 5605 5607 5609 5611 5613 5614 5616 5617 5618 5620 5621 5622 5624 5623 5623 5623 5621 5619 5616 5612 5609 5606 5603 5601 5598 5596 5595 5594 5591 5588 5584 5578 5573 5571 5565 5562 5560 5560 5562 5568 5575 5586 5601 5613 5624 5632 5641 5649 5656
5594 5595 5596 5598 5600 5603 5605 5606 5608 5609 5611 5613 5614 5616 5617 5619 5620 5621 5621 5621 5620 5618 5615 5612 5609 5606 5603 5600 5598 5595 5593 5590 5588 5585 5583 5578 5574 5572 5568 5564 5562 5563 5565 5573 5578 5587 5597 5607 5618 5627 5634 5642 5648 5658
5593 5594 5595 5597 5599 5601 5602 5603 5605 5607 5609 5611 5613 5613 5615 5617 5618 5619 5619 5619 5617 5615 5612 5610 5608 5604 5601 5597 5595 5592 5589 5586 5584 5582 5579 5576 5573 5568 5566 5563 5563 5566 5571 5574 5584 5593 5605 5616 5622 5628 5633 5643 5651 5657
5591 5593 5595 5595 5597 5599 5600 5601 5603 5605 5607 5609 5610 5612 5613 5615 5616 5617 5617 5616 5615 5614 5612 5609 5606 5603 5600 5596 5593 5590 5587 5584 5581 5578 5576 5571 5569 5567 5564 5563 5563 5569 5575 5581 5587 5597 5607 5616 5625 5630 5637 5643 5650 5657
5590 5592 5593 5594 5596 5597 5598 5600 5601 5603 5605 5607 5608 5610 5612 5613 5615 5616 5615 5614 5614 5612 5610 5608 5605 5601 5598 5595 5592 5589 5586 5583 5579 5576 5572 5570 5568 5566 5564 5562 5566 5573 5581 5588 5594 5603 5612 5624 5632 5639 5646 5650 5653 5659
5589 5590 5591 5593 5594 5595 5596 5598 5600 5602 5603 5605 5607 5609 5610 5611 5612 5613 5613 5612 5611 5611 5609 5606 5603 5600 5598 5595 5592 5589 5586 5582 5578 5574 5573 5571 5569 5568 5567 5566 5571 5580 5587 5591 5599 5607 5617 5625 5633 5641 5650 5651 5652 5656
5589 5590 5591 5592 5592 5593 5595 5597 5599 5601 5603 5604 5606 5607 5608 5609 5610 5610 5611 5611 5609 5608 5607 5605 5602 5599 5596 5594 5591 5589 5586 5583 5579 5576 5574 5573 5571 5570 5569 5568 5574 5583 5589 5594 5600 5609 5616 5624 5632 5640 5646 5648 5653 5657
5589 5589 5590 5591 5592 5593 5595 5597 5598 5600 5601 5603 5604 5605 5606 5607 5607 5608 5608 5607 5606 5606 5605 5603 5602 5599 5596 5593 5591 5589 5587 5584 5581 5577 5574 5573 5572 5569 5570 5572 5576 5583 5592 5599 5605 5612 5621 5626 5632 5639 5646 5651 5654 5659
5588 5589 5591 5593 5594 5595 5596 5597 5598 5600 5601 5602 5603 5604 5604 5603 5605 5604 5604 5603 5603 5602 5601 5599 5598 5597 5596 5593 5591 5590 5588 5586 5583 5579 5576 5574 5574 5574 5574 5577 5578 5585 5592 5601 5606 5613 5622 5628 5633 5639 5642 5649 5654 5661
5592 5592 5593 5595 5596 5598 5598 5599 5600 5600 5601 5601 5602 5602 5601 5601 5600 5601 5600 5599 5599 5599 5597 5596 5595 5594 5594 5593 5591 5589 5587 5586 5584 5582 5580 5578 5579 5579 5579 5580 5582 5586 5591 5605 5611 5617 5621 5626 5632 5638 5643 5646 5650 5657
5595 5595 5596 5598 5598 5599 5600 5600 5600 5600 5600 5600 5600 5599 5599 5599 5598 5597 5596 5595 5595 5595 5594 5592 5591 5590 5590 5590 5589 5588 5587 5586 5586 5585 5583 5583 5583 5586 5584 5583 5585 5590 5594 5604 5611 5617 5623 5628 5632 5635 5641 5645 5651 5656